Location: Saalfelden+am+Steinernen+Meer
(47.4274°N, 12.8411°E)
Time: 04:49:58
(UTC+02:00)

X-37B - Visible Passes

Search period start: 01 July 2022 00:00
Search period end: 11 July 2022 00:00
Orbit: 328 x 343 km, 45.0° (Epoch: 28 June)

Date Brightness Start Highest point End Pass type
(mag) Time Alt. Az. Time Alt. Az. Time Alt. Az.
01 Jul 2.6 00:12:12 10° W 00:12:57 16° WSW 00:12:57 16° WSW visible
01 Jul 0.4 22:57:16 10° WSW 23:00:01 51° S 23:01:12 27° ESE visible
02 Jul 0.5 23:17:39 10° W 23:20:23 46° S 23:20:32 46° S visible
03 Jul 0.5 22:02:43 10° WSW 22:05:27 51° S 22:08:12 10° E visible
03 Jul 1.7 23:38:07 10° W 23:39:48 25° SW 23:39:48 25° SW visible
04 Jul 0.6 22:23:07 10° W 22:25:50 47° S 22:27:49 16° ESE visible
04 Jul 3.0 23:58:49 10° WSW 23:59:01 11° WSW 23:59:01 11° WSW visible
05 Jul 1.1 22:43:35 10° W 22:46:09 33° SSW 22:47:01 26° SSE visible
06 Jul 2.0 23:04:16 10° WSW 23:06:13 19° SSW 23:06:13 19° SSW visible
07 Jul 1.2 21:49:02 10° W 21:51:36 33° SSW 21:54:10 10° SE visible
08 Jul 2.1 22:09:43 10° WSW 22:11:50 19° SSW 22:13:29 13° SSE visible
